Location: Brisbane
(27.5000°S, 153.0170°E)
Time: 00:36:50
(UTC+10:00)

ISS - Visible Passes

Search period start: 29 May 2017 00:00
Search period end: 08 June 2017 00:00
Orbit: 402 x 408 km, 51.6° (Epoch: 28 May)

Date Brightness Start Highest point End Pass type
(mag) Time Alt. Az. Time Alt. Az. Time Alt. Az.
30 May -3.6 05:24:20 10° NW 05:27:35 73° NE 05:30:54 10° SE visible
31 May -1.9 04:35:21 28° NE 04:35:38 28° NE 04:38:32 10° ESE visible
01 Jun -3.1 05:19:53 32° SW 05:19:56 32° SW 05:22:58 10° SSE visible
02 Jun -0.7 04:31:06 10° SE 04:31:06 10° SE 04:31:08 10° SE visible
